Terminal Aerodrome Forecast
Issued by NWS Cleveland, OH

Home | Current Version | Previous Version | Text Only | Print | Product List | Glossary Off
Versions: 1 2 3 4 5 6 7 8 9 10 11 12 13 14 15 16 17

000
FTUS41 KCLE 010500
TAFMFD
TAF
KMFD 010520Z 0106/0206 34007KT 6SM BR OVC004
      TEMPO 0107/0111 4SM -SHRA BR
     FM011300 34007KT P6SM SCT060
     FM011500 35008KT P6SM SKC=

USA.gov is the U.S. government's official web portal to all federal, state and local government web resources and services.